SCP
0 0 0 0 0 0 0 0 0 0 0 0 0 0 0 0 0 0 0 0 0 0 0 0 0 0 0 0 0 0 0 0 0 0 0 0 0 0 0 0 0 0 0 0
0 0 0 0 0 0 0 0 0 0 0 0 0 0 0 0 0 0 0 0 0 0 0 0 0 0 0 0 0 0 0 0 0 0 0 0 0 0 0 0 0 0 0 0
0 0 0 0 0 0 0 0 0 0 0 0 0 0 0 0 0 0 0 0 0 0 0 0 0 0 0 0 0 0 0 0 0 0 0 0 0 0 0 0 0 0 0 0
0 0 0 0 0 0 0 0 0 0 0 0 0 0 0 0 0 0 0 0 0 0 0 0 0 0 0 0 0 0 0 0 0 0 0 0 0 0 0 0 0 0 0 0
0 0 0 0 0 0 0 0 0 0 0 0 0 0 0 0 0 0 0 0 0 0 0 0 0 0 0 0 0 0 0 0 0 0 0 0 0 0 0 0 0 0 0 0
0 0 0 0 0 0 0 0 0 0 0 0 0 0 0 0 0 0 0 0 0 0 0 0 0 0 0 0 0 0 0 0 0 0 0 0 0 0 0 0 0 0 0 0
0 0 0 0 0 0 0 0 0 0 0 0 0 0 0 0 0 0 0 0 0 0 0 0 0 0 0 0 0 0 0 0 0 0 0 0 0 0 0 0 0 0 0 0
0 0 0 0 0 0 0 0 0 0 0 0 0 0 0 0 0 0 0 0 0 0 0 0 0 0 0 0 0 0 0 0 0 0 0 0 0 0 0 0 0 0 0 0
0 0 0 0 0 0 0 0 0 0 0 0 0 0 0 0 0 0 0 0 0 0 0 0 0 0 0 0 0 0 0 0 0 0 0 0 0 0 0 0 0 0 0 0
0 0 0 0 0 0 0 0 0 0 0 0 0 0 0 0 0 0 0 0 0 0 0 0 0 0 0 0 0 0 0 0 0 0 0 0 0 0 0 0 0 0 0 0
0 0 0 0 0 0 0 0 0 0 0 0 0 0 0 0 0 0 0 0 0 0 0 0 0 0 0 0 0 0 0 0 0 0 0 0 0 0 0 0 0 -0 0 0
0 0 0 0 0 0 0 0 0 0 0 0 0 0 0 0 0 0 0 0 0 0 0 0 0 0 0 0 0 0 0 0 0 0 0 0 0 0 0 0 0 0 0 0
0 0 0 0 0 0 0 0 0 0 0 0 0 0 0 0 0 0 0 0 0 0 0 0 0 0 0 0 0 0 0 0 0 0 0 -0 0 0 0 0 0 0 0 0
0 0 0 0 0 0 0 0 0 0 0 0 0 0 0 0 0 0 0 0 0 0 0 0 0 0 0 0 0 0 0 0 0 0 -0 0 0 0 0 0 0 0 0 0
0 0 0 0 0 0 0 0 0 0 0 0 0 0 0 0 0 0 0 0 0 0 0 0 0 0 0 0 0 0 0 0 0 0 -0 0 0 0 0 0 0 0 0 0
0 0 0 0 0 0 0 0 0 0 0 0 0 0 0 0 0 0 0 0 0 0 0 0 0 0 0 0 0 0 0 0 -0 -0 -0 0 0 0 0 0 0 0 0 0
0 0 0 0 0 0 0 0 0 0 0 0 0 0 0 0 0 0 0 0 0 0 0 0 0 0 0 0 0 0 0 0 -0 -0 -0 0 0 0 0 0 0 0 0 0
0 0 0 0 0 0 0 0 0 0 0 0 0 0 0 0 0 0 0 0 0 0 0 0 0 0 0 0 0 0 0 0 -0 -0 -0 0 0 0 0 0 0 0 0 0
0 0 0 0 0 0 0 0 0 0 0 0 0 0 0 0 0 0 0 0 0 0 0 0 0 0 0 0 0 0 0 -0 -0 -0 -0 -0 -0 0 0 0 -0 0 0 0
0 0 0 0 0 0 0 0 0 0 0 0 0 0 0 0 0 0 0 0 0 0 0 0 0 0 0 0 0 0 0 -0 -0 -0 -0 -0 -0 -0 0 0 -0 0 0 0
0 0 0 0 0 0 0 0 0 0 0 0 0 0 0 0 0 0 0 0 0 0 0 0 0 0 0 0 0 0 0 -0 -0 -0 -0 -0 -0 -0 0 -0 -0 0 0 0
0 0 0 0 0 0 0 0 0 0 0 0 0 0 0 0 0 0 0 0 0 0 0 0 0 0 0 0 0 0 0 -0 -0 -0 -0 -0 -0 -0 -0 -0 0 -0 0 0
0 0 0 0 0 0 0 0 0 0 0 0 0 0 0 0 0 0 0 0 0 0 0 0 0 0 0 0 0 0 -0 -0 -0 -0 -0 -0 -0 -0 -0 -0 -0 0 -0 -0
0 0 0 0 0 0 0 0 0 0 0 0 0 0 0 0 0 0 0 0 0 0 0 0 0 0 0 0 0 0 -0 -0 -0 0 0 0 -0 -0 -0 0 -0 -0 -0 -0
0 0 0 0 0 0 0 0 0 0 0 0 0 0 0 0 0 0 0 0 0 0 0 0 0 0 0 0 0 0 -0 -0 -0 0 0 -0 -0 -0 -0 0 -0 0 0 0
0 0 0 0 0 0 0 0 0 0 0 0 0 0 0 0 0 0 0 0 0 0 0 0 0 0 0 0 0 -0 -0 -0 0 0 0 -0 -0 -0 -0 0 0 -0 0 0
0 0 0 0 0 0 0 0 0 0 0 0 0 0 0 0 0 0 0 0 0 0 0 0 0 0 0 0 0 -0 -0 -0 0 0 0 -0 -0 0 0 0 0 0 0 0
Wind_Speed_500mb
6 6 2 5 8 10 12 9 11 7 13 2 4 8 6 11 13 17 26 30 33 41 42 39 42 42 41 43 50 59 62 63 66 71 75 78 80 82 84 79 71 69 71 75
3 5 7 9 14 12 8 6 13 8 13 8 9 3 9 11 12 15 17 28 41 43 42 43 44 43 41 45 52 57 59 63 68 72 75 77 79 83 79 73 69 67 68 69
7 8 12 12 8 11 7 7 9 9 9 9 4 6 16 20 16 25 29 41 53 49 47 44 39 36 40 48 54 56 60 65 69 72 76 78 80 80 76 70 68 65 68 68
5 7 2 9 4 2 7 6 4 6 6 4 3 11 26 17 15 28 41 51 50 50 49 38 32 35 44 50 54 57 61 64 67 72 78 80 81 75 71 63 63 71 69 65
5 3 12 4 2 7 6 6 11 11 7 4 8 17 12 2 32 44 50 51 50 49 38 29 33 41 49 52 55 60 63 66 69 73 77 81 73 66 65 66 69 65 64 63
4 7 8 9 4 8 8 9 16 13 7 4 11 7 8 32 43 47 49 50 48 39 31 30 38 46 50 53 58 61 64 67 71 72 77 73 62 66 73 64 64 62 65 63
5 6 16 11 9 8 5 12 20 9 1 5 4 13 33 39 45 46 45 48 36 30 29 36 45 49 52 56 58 59 62 67 70 72 72 61 66 68 69 60 63 63 60 65
5 3 13 16 7 13 7 18 13 5 2 10 17 26 33 39 46 46 47 39 28 27 33 41 44 50 55 56 56 57 64 68 69 70 65 61 64 68 58 59 59 57 69 67
16 12 7 24 7 11 13 16 9 1 4 12 20 27 33 40 44 39 37 30 28 33 41 40 44 49 53 53 53 60 66 68 70 65 58 57 57 59 61 59 55 60 58 63
4 2 13 15 16 15 12 9 5 1 5 12 20 26 34 39 41 37 33 31 32 37 38 43 45 46 48 50 52 61 65 67 68 60 58 61 60 61 58 56 54 63 60 57
10 6 7 16 18 19 13 8 5 2 8 14 20 27 35 41 41 37 33 32 35 36 40 43 46 46 44 45 53 62 64 68 62 57 61 63 60 58 52 47 47 48 48 55
10 10 7 12 32 20 13 6 2 8 13 19 26 32 38 41 43 39 35 35 35 36 39 44 47 44 42 44 54 59 62 61 58 60 58 63 63 63 51 44 42 40 38 45
4 4 15 14 25 18 13 8 1 8 12 19 25 33 37 44 44 41 37 36 36 38 39 45 46 43 41 46 54 55 59 55 66 58 58 61 59 58 58 56 45 38 39 42
14 20 19 27 15 19 14 4 8 13 17 23 29 33 38 44 48 44 40 38 38 38 37 44 43 42 41 48 53 52 54 55 61 52 56 55 53 51 51 50 50 49 44 45
26 18 7 16 21 16 11 8 14 21 27 33 37 43 42 45 48 46 42 38 37 35 37 40 44 44 41 47 51 51 51 59 56 49 53 49 46 47 48 46 43 43 47 52
28 23 16 16 15 12 11 18 26 35 39 41 46 44 44 45 48 48 43 39 38 34 37 39 43 41 41 46 49 51 49 55 49 47 50 48 46 46 45 43 42 43 44 52
28 26 23 20 19 13 16 23 32 43 48 46 45 45 48 45 47 48 43 39 36 35 37 38 40 38 39 45 47 46 48 52 46 44 45 45 46 43 41 39 41 44 45 48
25 24 20 16 19 24 30 37 39 41 42 42 43 46 49 43 46 48 45 40 36 33 32 35 37 36 38 41 43 43 45 46 43 43 43 45 43 39 38 38 41 44 48 45
25 24 26 26 26 33 31 34 38 39 40 44 44 45 43 38 42 46 45 40 35 33 30 34 36 33 37 39 35 40 40 42 41 41 41 42 42 38 36 36 39 42 43 49
10 13 18 22 19 24 33 39 40 45 45 43 40 40 40 38 41 46 44 41 33 31 30 33 33 31 32 36 37 40 36 39 37 41 40 42 42 39 35 37 37 42 45 45
8 11 14 17 21 31 39 40 42 41 41 40 37 38 40 41 43 46 45 42 28 28 27 28 29 27 29 31 38 36 33 36 34 38 42 41 42 41 34 35 39 42 47 39
14 17 18 22 31 33 30 34 36 37 39 39 36 36 39 45 44 41 42 40 27 27 25 24 26 25 23 31 32 31 29 32 31 34 42 42 41 39 37 39 42 45 45 35
18 22 23 27 29 32 35 36 36 38 37 35 33 34 41 46 41 42 42 28 23 21 21 21 23 24 28 30 29 28 28 30 30 32 35 41 45 42 35 36 40 45 35 46
26 27 29 26 28 33 36 33 30 29 32 33 35 39 41 42 39 35 31 23 21 20 17 18 22 23 28 27 26 24 23 26 30 32 33 33 38 43 36 35 39 42 40 48
29 25 22 30 32 31 34 32 30 32 40 45 44 40 36 35 35 29 24 22 20 18 15 17 17 21 24 24 24 23 23 24 28 31 32 33 37 36 40 39 38 41 44 45
16 26 29 28 28 29 29 30 36 44 48 44 40 38 32 32 30 23 20 21 21 12 13 14 14 17 21 22 23 23 23 22 25 29 31 30 36 33 37 41 43 42 40 43
26 26 24 24 26 26 24 29 33 39 44 39 44 38 36 27 22 17 19 23 19 8 10 12 12 16 17 19 21 22 21 22 24 26 29 28 32 33 34 36 40 40 43 43
Wind_Direction_500mb
247 257 289 253 234 174 194 194 180 238 213 92 161 149 60 19 21 2 352 347 340 332 327 314 303 293 294 302 312 315 316 317 318 319 319 319 320 321 321 321 321 323 321 315
320 20 5 278 251 226 227 216 259 270 278 192 147 157 351 356 340 314 314 329 328 323 317 312 300 291 296 307 315 317 319 319 320 320 320 321 322 324 323 322 323 325 319 316
272 349 326 304 249 192 192 180 172 200 234 155 155 1 337 325 315 308 307 315 320 320 315 306 297 291 303 313 317 318 320 321 323 323 322 324 325 323 322 322 327 320 318 318
245 5 16 249 329 307 224 220 185 81 123 142 236 295 306 315 328 323 318 317 317 315 311 301 292 300 312 317 318 320 322 323 325 325 326 326 325 322 325 331 325 322 321 320
110 194 289 295 197 183 170 296 185 164 164 206 310 317 318 336 326 320 317 316 314 314 309 299 303 313 316 318 320 323 325 327 329 328 326 325 323 327 332 327 324 323 323 319
97 119 221 241 164 142 106 283 184 168 178 308 338 351 258 319 320 317 316 318 315 312 305 305 312 316 319 322 325 326 327 329 329 329 328 324 331 334 330 324 323 322 319 326
155 215 284 233 183 136 105 243 161 161 149 334 248 264 310 317 319 323 322 321 313 306 307 314 318 319 321 323 325 326 327 328 329 331 329 332 331 326 328 327 325 321 324 329
92 84 283 183 127 177 182 122 142 124 346 303 303 312 316 320 328 331 328 326 315 309 312 318 320 320 322 325 325 326 328 327 329 330 332 334 330 328 331 331 328 331 331 331
179 215 218 193 236 168 154 148 153 200 317 324 325 327 325 326 332 332 332 326 313 311 317 321 321 322 322 325 326 328 328 328 329 328 338 333 329 334 335 331 330 332 326 333
94 339 226 208 157 156 147 138 137 107 340 338 334 333 330 330 332 327 327 322 313 313 316 321 324 325 323 324 326 328 327 329 333 335 330 332 339 338 335 333 333 334 333 339
268 261 133 187 192 181 164 150 145 10 356 344 335 335 332 334 330 323 318 321 316 316 319 323 325 325 325 325 327 328 329 331 336 328 333 339 339 336 335 337 336 331 336 342
232 216 184 205 193 175 168 156 61 1 343 343 341 337 335 334 332 322 314 315 315 316 318 325 326 326 325 327 328 331 330 337 334 328 336 340 336 338 344 344 342 339 342 345
276 228 218 167 167 173 179 182 256 321 327 337 343 336 333 330 330 323 311 310 314 316 319 327 327 327 327 328 331 334 333 338 335 336 342 336 339 341 343 348 350 353 353 349
199 161 142 172 187 191 200 213 322 327 318 317 322 322 321 325 329 325 317 307 309 312 320 328 330 332 326 328 333 335 335 337 338 341 337 336 341 345 348 348 352 357 3 1
180 186 197 197 195 197 210 287 308 317 318 310 309 311 316 315 325 326 320 309 305 310 320 331 334 331 326 331 334 336 336 340 341 338 340 341 346 351 353 353 358 0 360 1
197 208 202 207 204 217 256 296 299 307 306 310 312 314 312 308 320 325 319 307 301 308 317 324 332 331 328 334 335 334 339 343 342 341 346 349 352 351 356 0 2 1 360 5
189 202 210 221 226 241 286 296 301 301 306 307 312 310 309 307 316 323 318 308 299 303 313 320 331 329 330 335 336 338 338 341 344 347 351 353 354 355 1 2 5 2 1 1
225 233 229 252 252 270 285 298 302 305 307 309 312 311 311 305 315 321 320 309 302 305 312 324 330 327 331 334 337 339 339 344 347 348 351 357 353 358 3 4 6 3 0 3
217 224 241 253 278 291 295 302 306 308 307 309 309 312 310 305 313 317 319 310 305 305 311 323 328 325 330 334 341 341 342 347 349 351 353 355 359 0 1 3 5 2 5 6
200 233 251 263 277 300 306 309 305 304 304 306 303 310 307 304 305 311 314 312 304 301 308 321 326 327 332 335 346 343 344 348 350 351 354 355 1 0 360 359 358 356 351 357
218 242 257 283 297 302 302 300 300 301 306 303 297 306 307 306 306 305 309 310 310 296 305 316 328 331 333 341 342 337 342 349 353 354 357 357 360 4 2 2 3 359 3 359
259 262 280 299 307 311 311 306 305 301 301 301 300 299 304 310 310 303 306 304 297 291 303 316 327 329 338 339 339 340 346 353 355 359 3 4 360 1 2 3 6 1 7 7
259 281 296 304 308 309 312 311 306 304 300 301 301 299 304 309 311 311 313 302 291 287 301 313 324 333 334 342 341 343 347 356 356 357 1 5 8 5 5 5 8 11 14 5
287 291 294 297 305 309 312 315 310 303 302 303 302 303 303 302 304 313 309 292 287 290 301 313 322 330 337 343 344 345 347 353 359 358 359 3 4 7 9 12 12 4 5 1
293 295 303 308 307 310 311 309 304 301 299 298 297 300 298 295 300 312 309 311 296 289 300 312 317 329 337 343 345 348 352 354 357 355 358 3 7 6 10 16 15 7 8 8
301 309 310 306 307 311 308 304 313 321 321 325 319 319 309 289 288 291 289 280 287 283 302 312 315 331 341 347 348 350 355 355 358 360 2 5 6 9 10 10 12 15 15 13
305 305 304 305 309 307 301 306 314 323 324 321 320 328 328 313 298 274 264 269 273 251 302 313 317 338 350 352 351 354 357 356 358 1 0 9 6 8 8 6 5 11 13 15
Wind_Speed_850mb
6 6 2 5 8 10 12 9 11 7 13 2 4 8 6 11 13 17 26 30 33 41 42 39 42 42 41 43 50 59 62 63 66 71 75 78 80 82 84 79 71 69 71 75
3 5 7 9 14 12 8 6 13 8 13 8 9 3 9 11 12 15 17 28 41 43 42 43 44 43 41 45 52 57 59 63 68 72 75 77 79 83 79 73 69 67 68 69
7 8 12 12 8 11 7 7 9 9 9 9 4 6 16 20 16 25 29 41 53 49 47 44 39 36 40 48 54 56 60 65 69 72 76 78 80 80 76 70 68 65 68 68
5 7 2 9 4 2 7 6 4 6 6 4 3 11 26 17 15 28 41 51 50 50 49 38 32 35 44 50 54 57 61 64 67 72 78 80 81 75 71 63 63 71 69 65
5 3 12 4 2 7 6 6 11 11 7 4 8 17 12 2 32 44 50 51 50 49 38 29 33 41 49 52 55 60 63 66 69 73 77 81 73 66 65 66 69 65 64 63
4 7 8 9 4 8 8 9 16 13 7 4 11 7 8 32 43 47 49 50 48 39 31 30 38 46 50 53 58 61 64 67 71 72 77 73 62 66 73 64 64 62 65 63
5 6 16 11 9 8 5 12 20 9 1 5 4 13 33 39 45 46 45 48 36 30 29 36 45 49 52 56 58 59 62 67 70 72 72 61 66 68 69 60 63 63 60 65
5 3 13 16 7 13 7 18 13 5 2 10 17 26 33 39 46 46 47 39 28 27 33 41 44 50 55 56 56 57 64 68 69 70 65 61 64 68 58 59 59 57 69 67
16 12 7 24 7 11 13 16 9 1 4 12 20 27 33 40 44 39 37 30 28 33 41 40 44 49 53 53 53 60 66 68 70 65 58 57 57 59 61 59 55 60 58 63
4 2 13 15 16 15 12 9 5 1 5 12 20 26 34 39 41 37 33 31 32 37 38 43 45 46 48 50 52 61 65 67 68 60 58 61 60 61 58 56 54 63 60 57
10 6 7 16 18 19 13 8 5 2 8 14 20 27 35 41 41 37 33 32 35 36 40 43 46 46 44 45 53 62 64 68 62 57 61 63 60 58 52 47 47 48 48 55
10 10 7 12 32 20 13 6 2 8 13 19 26 32 38 41 43 39 35 35 35 36 39 44 47 44 42 44 54 59 62 61 58 60 58 63 63 63 51 44 42 40 38 45
4 4 15 14 25 18 13 8 1 8 12 19 25 33 37 44 44 41 37 36 36 38 39 45 46 43 41 46 54 55 59 55 66 58 58 61 59 58 58 56 45 38 39 42
14 20 19 27 15 19 14 4 8 13 17 23 29 33 38 44 48 44 40 38 38 38 37 44 43 42 41 48 53 52 54 55 61 52 56 55 53 51 51 50 50 49 44 45
26 18 7 16 21 16 11 8 14 21 27 33 37 43 42 45 48 46 42 38 37 35 37 40 44 44 41 47 51 51 51 59 56 49 53 49 46 47 48 46 43 43 47 52
28 23 16 16 15 12 11 18 26 35 39 41 46 44 44 45 48 48 43 39 38 34 37 39 43 41 41 46 49 51 49 55 49 47 50 48 46 46 45 43 42 43 44 52
28 26 23 20 19 13 16 23 32 43 48 46 45 45 48 45 47 48 43 39 36 35 37 38 40 38 39 45 47 46 48 52 46 44 45 45 46 43 41 39 41 44 45 48
25 24 20 16 19 24 30 37 39 41 42 42 43 46 49 43 46 48 45 40 36 33 32 35 37 36 38 41 43 43 45 46 43 43 43 45 43 39 38 38 41 44 48 45
25 24 26 26 26 33 31 34 38 39 40 44 44 45 43 38 42 46 45 40 35 33 30 34 36 33 37 39 35 40 40 42 41 41 41 42 42 38 36 36 39 42 43 49
10 13 18 22 19 24 33 39 40 45 45 43 40 40 40 38 41 46 44 41 33 31 30 33 33 31 32 36 37 40 36 39 37 41 40 42 42 39 35 37 37 42 45 45
8 11 14 17 21 31 39 40 42 41 41 40 37 38 40 41 43 46 45 42 28 28 27 28 29 27 29 31 38 36 33 36 34 38 42 41 42 41 34 35 39 42 47 39
14 17 18 22 31 33 30 34 36 37 39 39 36 36 39 45 44 41 42 40 27 27 25 24 26 25 23 31 32 31 29 32 31 34 42 42 41 39 37 39 42 45 45 35
18 22 23 27 29 32 35 36 36 38 37 35 33 34 41 46 41 42 42 28 23 21 21 21 23 24 28 30 29 28 28 30 30 32 35 41 45 42 35 36 40 45 35 46
26 27 29 26 28 33 36 33 30 29 32 33 35 39 41 42 39 35 31 23 21 20 17 18 22 23 28 27 26 24 23 26 30 32 33 33 38 43 36 35 39 42 40 48
29 25 22 30 32 31 34 32 30 32 40 45 44 40 36 35 35 29 24 22 20 18 15 17 17 21 24 24 24 23 23 24 28 31 32 33 37 36 40 39 38 41 44 45
16 26 29 28 28 29 29 30 36 44 48 44 40 38 32 32 30 23 20 21 21 12 13 14 14 17 21 22 23 23 23 22 25 29 31 30 36 33 37 41 43 42 40 43
26 26 24 24 26 26 24 29 33 39 44 39 44 38 36 27 22 17 19 23 19 8 10 12 12 16 17 19 21 22 21 22 24 26 29 28 32 33 34 36 40 40 43 43
Wind_Direction_850mb
247 257 289 253 234 174 194 194 180 238 213 92 161 149 60 19 21 2 352 347 340 332 327 314 303 293 294 302 312 315 316 317 318 319 319 319 320 321 321 321 321 323 321 315
320 20 5 278 251 226 227 216 259 270 278 192 147 157 351 356 340 314 314 329 328 323 317 312 300 291 296 307 315 317 319 319 320 320 320 321 322 324 323 322 323 325 319 316
272 349 326 304 249 192 192 180 172 200 234 155 155 1 337 325 315 308 307 315 320 320 315 306 297 291 303 313 317 318 320 321 323 323 322 324 325 323 322 322 327 320 318 318
245 5 16 249 329 307 224 220 185 81 123 142 236 295 306 315 328 323 318 317 317 315 311 301 292 300 312 317 318 320 322 323 325 325 326 326 325 322 325 331 325 322 321 320
110 194 289 295 197 183 170 296 185 164 164 206 310 317 318 336 326 320 317 316 314 314 309 299 303 313 316 318 320 323 325 327 329 328 326 325 323 327 332 327 324 323 323 319
97 119 221 241 164 142 106 283 184 168 178 308 338 351 258 319 320 317 316 318 315 312 305 305 312 316 319 322 325 326 327 329 329 329 328 324 331 334 330 324 323 322 319 326
155 215 284 233 183 136 105 243 161 161 149 334 248 264 310 317 319 323 322 321 313 306 307 314 318 319 321 323 325 326 327 328 329 331 329 332 331 326 328 327 325 321 324 329
92 84 283 183 127 177 182 122 142 124 346 303 303 312 316 320 328 331 328 326 315 309 312 318 320 320 322 325 325 326 328 327 329 330 332 334 330 328 331 331 328 331 331 331
179 215 218 193 236 168 154 148 153 200 317 324 325 327 325 326 332 332 332 326 313 311 317 321 321 322 322 325 326 328 328 328 329 328 338 333 329 334 335 331 330 332 326 333
94 339 226 208 157 156 147 138 137 107 340 338 334 333 330 330 332 327 327 322 313 313 316 321 324 325 323 324 326 328 327 329 333 335 330 332 339 338 335 333 333 334 333 339
268 261 133 187 192 181 164 150 145 10 356 344 335 335 332 334 330 323 318 321 316 316 319 323 325 325 325 325 327 328 329 331 336 328 333 339 339 336 335 337 336 331 336 342
232 216 184 205 193 175 168 156 61 1 343 343 341 337 335 334 332 322 314 315 315 316 318 325 326 326 325 327 328 331 330 337 334 328 336 340 336 338 344 344 342 339 342 345
276 228 218 167 167 173 179 182 256 321 327 337 343 336 333 330 330 323 311 310 314 316 319 327 327 327 327 328 331 334 333 338 335 336 342 336 339 341 343 348 350 353 353 349
199 161 142 172 187 191 200 213 322 327 318 317 322 322 321 325 329 325 317 307 309 312 320 328 330 332 326 328 333 335 335 337 338 341 337 336 341 345 348 348 352 357 3 1
180 186 197 197 195 197 210 287 308 317 318 310 309 311 316 315 325 326 320 309 305 310 320 331 334 331 326 331 334 336 336 340 341 338 340 341 346 351 353 353 358 0 360 1
197 208 202 207 204 217 256 296 299 307 306 310 312 314 312 308 320 325 319 307 301 308 317 324 332 331 328 334 335 334 339 343 342 341 346 349 352 351 356 0 2 1 360 5
189 202 210 221 226 241 286 296 301 301 306 307 312 310 309 307 316 323 318 308 299 303 313 320 331 329 330 335 336 338 338 341 344 347 351 353 354 355 1 2 5 2 1 1
225 233 229 252 252 270 285 298 302 305 307 309 312 311 311 305 315 321 320 309 302 305 312 324 330 327 331 334 337 339 339 344 347 348 351 357 353 358 3 4 6 3 0 3
217 224 241 253 278 291 295 302 306 308 307 309 309 312 310 305 313 317 319 310 305 305 311 323 328 325 330 334 341 341 342 347 349 351 353 355 359 0 1 3 5 2 5 6
200 233 251 263 277 300 306 309 305 304 304 306 303 310 307 304 305 311 314 312 304 301 308 321 326 327 332 335 346 343 344 348 350 351 354 355 1 0 360 359 358 356 351 357
218 242 257 283 297 302 302 300 300 301 306 303 297 306 307 306 306 305 309 310 310 296 305 316 328 331 333 341 342 337 342 349 353 354 357 357 360 4 2 2 3 359 3 359
259 262 280 299 307 311 311 306 305 301 301 301 300 299 304 310 310 303 306 304 297 291 303 316 327 329 338 339 339 340 346 353 355 359 3 4 360 1 2 3 6 1 7 7
259 281 296 304 308 309 312 311 306 304 300 301 301 299 304 309 311 311 313 302 291 287 301 313 324 333 334 342 341 343 347 356 356 357 1 5 8 5 5 5 8 11 14 5
287 291 294 297 305 309 312 315 310 303 302 303 302 303 303 302 304 313 309 292 287 290 301 313 322 330 337 343 344 345 347 353 359 358 359 3 4 7 9 12 12 4 5 1
293 295 303 308 307 310 311 309 304 301 299 298 297 300 298 295 300 312 309 311 296 289 300 312 317 329 337 343 345 348 352 354 357 355 358 3 7 6 10 16 15 7 8 8
301 309 310 306 307 311 308 304 313 321 321 325 319 319 309 289 288 291 289 280 287 283 302 312 315 331 341 347 348 350 355 355 358 360 2 5 6 9 10 10 12 15 15 13
305 305 304 305 309 307 301 306 314 323 324 321 320 328 328 313 298 274 264 269 273 251 302 313 317 338 350 352 351 354 357 356 358 1 0 9 6 8 8 6 5 11 13 15